Location: Birkenwerder
(52.6919°N, 13.2774°E)
Time: 08:46:09
(UTC+00:00)

Meteor 1-11 - Pass Details

Date: 07 June 2020
Orbit: 843 x 885 km, 81.2° (Epoch: 11 July)

Event Time Altitude Azimuth Distance (km) Brightness Sun altitude
Exits shadow 01:03:56 13° 208° (SSW) 2,234 5.7 -10.3°
Maximum altitude 01:08:51 62° 287° (WNW) 950 4.4 -9.9°
Drops below altitude 10° 01:14:24 10° 8° (N) 2,477 7.9 -9.5°
Sets 01:16:52 0° 12° (NNE) 3,419 9.0 -9.3°
